Location: Carabito
(9.8355°N, 67.9249°W)
Time: 01:48:16
(UTC+00:00)

H-2A R/B - Pass Details

Date: 23 May 2024
Orbit: 141 x 2698 km, 31.8° (Epoch: 12 June)

Event Time Altitude Azimuth Distance (km) Brightness Sun altitude
Exits shadow 06:54:35 25° 120° (ESE) 2,567 4.7 -42.9°
Drops below altitude 10° 06:59:09 10° 122° (ESE) 4,137 5.9 -42.0°
Enters shadow 08:26:08 -54° 307° (NW) 10,589 7.9 -24.1°
